Time,TemperatureF,DewpointF,PressureIn,WindDirection,WindDirectionDegrees,WindSpeedMPH,WindSpeedGustMPH,Humidity,HourlyPrecipIn,Conditions,Clouds,dailyrainin,SoftwareType,DateUTC
2013-04-13 00:05:00,56.5,55.0,29.92,WNW,293,5.0,9.0,95,0.00,,,0.00,meteohub,2013-04-13 07:05:00,
2013-04-13 00:10:00,56.5,55.0,29.93,NW,315,2.0,9.0,95,0.00,,,0.00,meteohub,2013-04-13 07:10:00,
2013-04-13 00:15:00,56.5,55.0,29.92,West,270,3.0,6.0,95,0.00,,,0.00,meteohub,2013-04-13 07:15:00,
2013-04-13 00:20:00,56.5,55.0,29.92,SSW,203,2.0,6.0,95,0.00,,,0.00,meteohub,2013-04-13 07:20:00,
2013-04-13 00:25:00,56.7,55.6,29.92,West,270,5.0,6.0,96,0.00,,,0.00,meteohub,2013-04-13 07:25:00,
2013-04-13 00:30:00,56.5,55.4,29.93,West,270,4.0,5.0,96,0.00,,,0.00,meteohub,2013-04-13 07:30:00,
2013-04-13 00:35:00,56.5,55.4,29.93,West,270,3.0,5.0,96,0.00,,,0.00,meteohub,2013-04-13 07:35:00,
2013-04-13 00:40:00,56.5,55.6,29.93,West,270,0.0,4.0,97,0.00,,,0.00,meteohub,2013-04-13 07:40:00,
2013-04-13 00:45:00,56.5,55.6,29.93,West,270,3.0,4.0,97,0.00,,,0.00,meteohub,2013-04-13 07:45:00,
2013-04-13 00:50:00,56.5,55.6,29.93,West,270,2.0,3.0,97,0.00,,,0.00,meteohub,2013-04-13 07:50:00,
2013-04-13 00:55:00,56.5,55.6,29.93,West,270,2.0,3.0,97,0.00,,,0.00,meteohub,2013-04-13 07:55:00,
2013-04-13 01:01:00,56.7,55.8,29.93,West,270,2.0,3.0,97,0.00,,,0.00,meteohub,2013-04-13 08:01:00,
2013-04-13 01:06:00,56.7,55.8,29.92,West,270,2.0,3.0,97,0.00,,,0.00,meteohub,2013-04-13 08:06:00,
2013-04-13 01:12:00,56.8,55.9,29.93,West,270,2.0,3.0,97,0.00,,,0.00,meteohub,2013-04-13 08:12:00,
2013-04-13 01:17:00,57.0,56.1,29.92,West,270,3.0,4.0,97,0.00,,,0.00,meteohub,2013-04-13 08:17:00,
2013-04-13 01:22:00,57.0,56.1,29.92,West,270,4.0,4.0,97,0.00,,,0.00,meteohub,2013-04-13 08:22:00,
2013-04-13 01:27:00,57.2,56.3,29.92,West,270,4.0,4.0,97,0.00,,,0.00,meteohub,2013-04-13 08:27:00,
2013-04-13 01:33:00,57.0,55.9,29.92,West,270,1.0,4.0,96,0.00,,,0.00,meteohub,2013-04-13 08:33:00,
2013-04-13 01:38:00,57.0,55.9,29.92,West,270,1.0,4.0,96,0.00,,,0.00,meteohub,2013-04-13 08:38:00,
2013-04-13 01:43:00,57.2,56.1,29.91,SSW,203,4.0,4.0,96,0.00,,,0.00,meteohub,2013-04-13 08:43:00,
2013-04-13 01:48:00,57.2,56.1,29.92,West,270,3.0,5.0,96,0.00,,,0.00,meteohub,2013-04-13 08:48:00,
2013-04-13 01:53:00,57.2,56.1,29.92,South,180,1.0,5.0,96,0.00,,,0.00,meteohub,2013-04-13 08:53:00,
2013-04-13 01:58:00,57.2,55.8,29.91,South,180,2.0,5.0,95,0.00,,,0.00,meteohub,2013-04-13 08:58:00,
2013-04-13 02:03:00,57.4,55.9,29.91,South,180,3.0,4.0,95,0.00,,,0.00,meteohub,2013-04-13 09:03:00,
2013-04-13 02:08:00,57.6,56.1,29.91,SE,135,2.0,4.0,95,0.00,,,0.00,meteohub,2013-04-13 09:08:00,
2013-04-13 02:13:00,57.6,56.1,29.91,West,270,3.0,4.0,95,0.00,,,0.00,meteohub,2013-04-13 09:13:00,
2013-04-13 02:18:00,57.7,56.3,29.91,South,180,3.0,4.0,95,0.00,,,0.00,meteohub,2013-04-13 09:18:00,
2013-04-13 02:23:00,57.7,55.9,29.91,SW,225,6.0,6.0,94,0.00,,,0.00,meteohub,2013-04-13 09:23:00,
2013-04-13 02:28:00,57.7,56.3,29.91,WNW,293,4.0,6.0,95,0.00,,,0.00,meteohub,2013-04-13 09:28:00,
2013-04-13 02:33:00,57.6,56.1,29.91,NW,315,4.0,7.0,95,0.00,,,0.00,meteohub,2013-04-13 09:33:00,
2013-04-13 02:38:00,57.4,56.3,29.91,NW,315,4.0,7.0,96,0.00,,,0.00,meteohub,2013-04-13 09:38:00,
2013-04-13 02:43:00,57.2,56.1,29.91,NW,315,4.0,7.0,96,0.00,,,0.00,meteohub,2013-04-13 09:43:00,
2013-04-13 02:49:00,57.2,56.3,29.90,NW,315,8.0,8.0,97,0.00,,,0.00,meteohub,2013-04-13 09:49:00,
2013-04-13 02:54:00,56.8,56.3,29.91,WNW,293,4.0,7.0,98,0.00,,,0.00,meteohub,2013-04-13 09:54:00,
2013-04-13 02:59:00,56.7,56.1,29.91,WNW,293,4.0,8.0,98,0.00,,,0.00,meteohub,2013-04-13 09:59:00,
2013-04-13 03:04:00,56.7,56.1,29.90,NW,315,4.0,8.0,98,0.00,,,0.00,meteohub,2013-04-13 10:04:00,
2013-04-13 03:09:00,56.7,56.3,29.90,NW,315,5.0,8.0,99,0.00,,,0.00,meteohub,2013-04-13 10:09:00,
2013-04-13 03:14:00,56.5,56.1,29.90,NW,315,8.0,8.0,99,0.00,,,0.00,meteohub,2013-04-13 10:14:00,
2013-04-13 03:20:00,56.5,56.1,29.90,NW,315,6.0,7.0,99,0.00,,,0.00,meteohub,2013-04-13 10:20:00,
2013-04-13 03:25:00,56.3,55.9,29.90,NW,315,4.0,8.0,99,0.00,,,0.00,meteohub,2013-04-13 10:25:00,
2013-04-13 03:30:00,56.3,55.9,29.90,WNW,293,6.0,8.0,99,0.00,,,0.00,meteohub,2013-04-13 10:30:00,
2013-04-13 03:35:00,56.1,55.8,29.90,West,270,5.0,7.0,99,0.00,,,0.00,meteohub,2013-04-13 10:35:00,
2013-04-13 03:40:00,55.9,55.6,29.90,NW,315,3.0,7.0,99,0.00,,,0.00,meteohub,2013-04-13 10:40:00,
2013-04-13 03:46:00,55.9,55.6,29.90,WNW,293,6.0,6.0,99,0.00,,,0.00,meteohub,2013-04-13 10:46:00,
2013-04-13 03:51:00,55.8,55.4,29.90,NW,315,5.0,6.0,99,0.00,,,0.00,meteohub,2013-04-13 10:51:00,
2013-04-13 03:56:00,55.8,55.4,29.90,West,270,4.0,6.0,99,0.00,,,0.00,meteohub,2013-04-13 10:56:00,
2013-04-13 04:01:00,55.8,55.4,29.89,WNW,293,4.0,8.0,99,0.00,,,0.00,meteohub,2013-04-13 11:01:00,
2013-04-13 04:07:00,55.6,55.2,29.89,WNW,293,5.0,8.0,99,0.00,,,0.00,meteohub,2013-04-13 11:07:00,
2013-04-13 04:12:00,55.8,55.4,29.89,NW,315,2.0,6.0,99,0.00,,,0.00,meteohub,2013-04-13 11:12:00,
2013-04-13 04:17:00,55.6,55.2,29.89,NW,315,3.0,5.0,99,0.00,,,0.00,meteohub,2013-04-13 11:17:00,
2013-04-13 04:22:00,55.8,55.4,29.89,NW,315,4.0,5.0,99,0.00,,,0.00,meteohub,2013-04-13 11:22:00,
2013-04-13 04:27:00,55.6,55.2,29.90,WNW,293,5.0,9.0,99,0.00,,,0.00,meteohub,2013-04-13 11:27:00,
2013-04-13 04:32:00,55.6,55.2,29.89,NW,315,4.0,9.0,99,0.00,,,0.00,meteohub,2013-04-13 11:32:00,
2013-04-13 04:38:00,55.4,55.0,29.89,NW,315,5.0,9.0,99,0.00,,,0.00,meteohub,2013-04-13 11:38:00,
2013-04-13 04:44:00,55.6,55.2,29.90,NW,315,4.0,6.0,99,0.00,,,0.00,meteohub,2013-04-13 11:44:00,
2013-04-13 04:49:00,55.4,55.0,29.89,NW,315,3.0,6.0,99,0.00,,,0.00,meteohub,2013-04-13 11:49:00,
2013-04-13 04:54:00,55.4,55.0,29.90,West,270,4.0,7.0,99,0.00,,,0.00,meteohub,2013-04-13 11:54:00,
2013-04-13 04:59:00,55.4,55.0,29.90,NW,315,3.0,7.0,99,0.00,,,0.00,meteohub,2013-04-13 11:59:00,
2013-04-13 05:04:00,55.2,54.9,29.89,NW,315,4.0,7.0,99,0.00,,,0.00,meteohub,2013-04-13 12:04:00,
2013-04-13 05:09:00,55.4,55.0,29.89,NW,315,4.0,5.0,99,0.00,,,0.00,meteohub,2013-04-13 12:09:00,
2013-04-13 05:15:00,55.2,54.9,29.89,NW,315,3.0,5.0,99,0.00,,,0.00,meteohub,2013-04-13 12:15:00,
2013-04-13 05:20:00,55.2,54.9,29.89,NW,315,4.0,4.0,99,0.00,,,0.00,meteohub,2013-04-13 12:20:00,
2013-04-13 05:25:00,55.2,54.9,29.89,NW,315,2.0,4.0,99,0.00,,,0.00,meteohub,2013-04-13 12:25:00,
2013-04-13 05:30:00,55.2,54.9,29.89,NW,315,3.0,4.0,99,0.00,,,0.00,meteohub,2013-04-13 12:30:00,
2013-04-13 05:35:00,55.2,54.9,29.89,NW,315,4.0,4.0,99,0.00,,,0.00,meteohub,2013-04-13 12:35:00,
2013-04-13 05:40:00,55.2,54.9,29.89,NW,315,3.0,4.0,99,0.00,,,0.00,meteohub,2013-04-13 12:40:00,
2013-04-13 05:45:00,55.4,55.0,29.89,NW,315,4.0,4.0,99,0.00,,,0.00,meteohub,2013-04-13 12:45:00,
2013-04-13 05:50:00,55.4,55.0,29.89,NW,315,2.0,4.0,99,0.00,,,0.00,meteohub,2013-04-13 12:50:00,
2013-04-13 05:55:00,55.4,55.0,29.89,NW,315,3.0,5.0,99,0.00,,,0.00,meteohub,2013-04-13 12:55:00,
2013-04-13 06:00:00,55.4,55.0,29.89,NW,315,3.0,5.0,99,0.00,,,0.00,meteohub,2013-04-13 13:00:00,
2013-04-13 06:05:00,55.4,55.0,29.89,WNW,293,2.0,4.0,99,0.00,,,0.00,meteohub,2013-04-13 13:05:00,
2013-04-13 06:10:00,55.4,55.0,29.89,NW,315,4.0,5.0,99,0.00,,,0.00,meteohub,2013-04-13 13:10:00,
2013-04-13 06:16:00,55.6,55.2,29.89,WNW,293,4.0,5.0,99,0.00,,,0.00,meteohub,2013-04-13 13:16:00,
2013-04-13 06:22:00,55.6,55.2,29.89,WNW,293,4.0,5.0,99,0.00,,,0.00,meteohub,2013-04-13 13:22:00,
2013-04-13 06:27:00,55.4,55.0,29.89,WNW,293,5.0,5.0,99,0.00,,,0.00,meteohub,2013-04-13 13:27:00,
2013-04-13 06:32:00,55.6,55.2,29.90,WNW,293,6.0,6.0,99,0.00,,,0.00,meteohub,2013-04-13 13:32:00,
2013-04-13 06:37:00,55.6,55.2,29.90,West,270,4.0,6.0,99,0.00,,,0.00,meteohub,2013-04-13 13:37:00,
2013-04-13 06:42:00,55.6,55.2,29.90,NW,315,4.0,6.0,99,0.00,,,0.00,meteohub,2013-04-13 13:42:00,
2013-04-13 06:47:00,55.6,55.2,29.90,NW,315,4.0,6.0,99,0.00,,,0.00,meteohub,2013-04-13 13:47:00,
2013-04-13 06:52:00,55.6,55.2,29.90,NW,315,4.0,6.0,99,0.00,,,0.00,meteohub,2013-04-13 13:52:00,
2013-04-13 06:58:00,55.6,55.2,29.90,West,270,6.0,6.0,99,0.00,,,0.00,meteohub,2013-04-13 13:58:00,
2013-04-13 07:03:00,55.6,55.2,29.90,WNW,293,4.0,7.0,99,0.00,,,0.00,meteohub,2013-04-13 14:03:00,
2013-04-13 07:08:00,55.8,55.4,29.90,West,270,3.0,7.0,99,0.00,,,0.00,meteohub,2013-04-13 14:08:00,
2013-04-13 07:13:00,55.6,55.2,29.91,NW,315,5.0,6.0,99,0.00,,,0.00,meteohub,2013-04-13 14:13:00,
2013-04-13 07:18:00,55.6,55.2,29.90,West,270,4.0,5.0,99,0.00,,,0.00,meteohub,2013-04-13 14:18:00,
2013-04-13 07:23:00,55.8,55.4,29.91,West,270,4.0,5.0,99,0.00,,,0.00,meteohub,2013-04-13 14:23:00,
2013-04-13 07:28:00,55.6,55.2,29.91,WNW,293,4.0,5.0,99,0.00,,,0.00,meteohub,2013-04-13 14:28:00,
2013-04-13 07:34:00,55.8,55.4,29.91,NW,315,4.0,5.0,99,0.00,,,0.00,meteohub,2013-04-13 14:34:00,
2013-04-13 07:39:00,55.9,55.6,29.92,West,270,3.0,5.0,99,0.00,,,0.00,meteohub,2013-04-13 14:39:00,
2013-04-13 07:44:00,55.9,55.6,29.91,WNW,293,4.0,5.0,99,0.00,,,0.00,meteohub,2013-04-13 14:44:00,
2013-04-13 07:49:00,56.1,55.8,29.91,NW,315,4.0,4.0,99,0.00,,,0.00,meteohub,2013-04-13 14:49:00,
2013-04-13 07:54:00,56.1,55.8,29.92,NW,315,4.0,4.0,99,0.00,,,0.00,meteohub,2013-04-13 14:54:00,
2013-04-13 07:59:00,56.1,55.8,29.91,West,270,2.0,4.0,99,0.00,,,0.00,meteohub,2013-04-13 14:59:00,
2013-04-13 08:04:00,56.1,55.8,29.92,West,270,3.0,5.0,99,0.00,,,0.00,meteohub,2013-04-13 15:04:00,
2013-04-13 08:09:00,56.3,55.9,29.91,West,270,2.0,5.0,99,0.00,,,0.00,meteohub,2013-04-13 15:09:00,
2013-04-13 08:14:00,56.3,55.9,29.91,WNW,293,3.0,5.0,99,0.00,,,0.00,meteohub,2013-04-13 15:14:00,
2013-04-13 08:19:00,56.5,56.1,29.91,WNW,293,2.0,5.0,99,0.00,,,0.00,meteohub,2013-04-13 15:19:00,
2013-04-13 08:25:00,56.5,56.1,29.92,West,270,5.0,5.0,99,0.00,,,0.00,meteohub,2013-04-13 15:25:00,
2013-04-13 08:31:00,56.7,56.3,29.92,NW,315,4.0,5.0,99,0.00,,,0.00,meteohub,2013-04-13 15:31:00,
2013-04-13 08:36:00,56.8,56.5,29.92,WNW,293,4.0,5.0,99,0.00,,,0.00,meteohub,2013-04-13 15:36:00,
2013-04-13 08:41:00,56.8,56.5,29.92,NW,315,4.0,5.0,99,0.00,,,0.00,meteohub,2013-04-13 15:41:00,
2013-04-13 08:46:00,57.2,56.8,29.92,NW,315,4.0,5.0,99,0.00,,,0.00,meteohub,2013-04-13 15:46:00,
2013-04-13 08:51:00,57.4,57.0,29.92,NW,315,2.0,5.0,99,0.00,,,0.00,meteohub,2013-04-13 15:51:00,
2013-04-13 08:56:00,57.6,57.2,29.92,West,270,2.0,4.0,99,0.00,,,0.00,meteohub,2013-04-13 15:56:00,
2013-04-13 09:01:00,57.6,57.0,29.92,West,270,2.0,4.0,98,0.00,,,0.00,meteohub,2013-04-13 16:01:00,
2013-04-13 09:07:00,57.9,57.0,29.92,West,270,4.0,4.0,97,0.00,,,0.00,meteohub,2013-04-13 16:07:00,
2013-04-13 09:12:00,57.7,56.7,29.92,West,270,3.0,5.0,96,0.00,,,0.00,meteohub,2013-04-13 16:12:00,
2013-04-13 09:17:00,58.1,57.0,29.92,West,270,0.0,5.0,96,0.00,,,0.00,meteohub,2013-04-13 16:17:00,
2013-04-13 09:22:00,58.6,57.6,29.92,West,270,4.0,5.0,96,0.00,,,0.00,meteohub,2013-04-13 16:22:00,
2013-04-13 09:27:00,58.6,56.8,29.92,West,270,5.0,5.0,94,0.00,,,0.00,meteohub,2013-04-13 16:27:00,
2013-04-13 09:32:00,58.8,56.8,29.92,NW,315,3.0,6.0,93,0.00,,,0.00,meteohub,2013-04-13 16:32:00,
2013-04-13 09:37:00,59.0,57.0,29.92,South,180,2.0,6.0,93,0.00,,,0.00,meteohub,2013-04-13 16:37:00,
2013-04-13 09:42:00,59.2,56.8,29.93,WNW,293,2.0,6.0,92,0.00,,,0.00,meteohub,2013-04-13 16:42:00,
2013-04-13 09:47:00,59.5,56.7,29.92,West,270,2.0,5.0,90,0.00,,,0.00,meteohub,2013-04-13 16:47:00,
2013-04-13 09:53:00,59.9,56.7,29.92,South,180,2.0,4.0,89,0.00,,,0.00,meteohub,2013-04-13 16:53:00,
2013-04-13 09:58:00,60.1,56.1,29.93,NW,315,4.0,4.0,87,0.00,,,0.00,meteohub,2013-04-13 16:58:00,
2013-04-13 10:03:00,59.7,56.1,29.93,WNW,293,3.0,5.0,88,0.00,,,0.00,meteohub,2013-04-13 17:03:00,
2013-04-13 10:08:00,59.7,56.5,29.93,SSW,203,4.0,5.0,89,0.00,,,0.00,meteohub,2013-04-13 17:08:00,
2013-04-13 10:13:00,59.5,56.3,29.92,SW,225,3.0,5.0,89,0.00,,,0.00,meteohub,2013-04-13 17:13:00,
2013-04-13 10:19:00,59.5,55.9,29.92,SW,225,2.0,4.0,88,0.00,,,0.00,meteohub,2013-04-13 17:19:00,
2013-04-13 10:24:00,59.7,56.1,29.93,West,270,3.0,5.0,88,0.00,,,0.00,meteohub,2013-04-13 17:24:00,
2013-04-13 10:29:00,59.7,56.1,29.92,West,270,3.0,6.0,88,0.00,,,0.00,meteohub,2013-04-13 17:29:00,
2013-04-13 10:34:00,59.9,56.3,29.93,WNW,293,7.0,7.0,88,0.00,,,0.00,meteohub,2013-04-13 17:34:00,
2013-04-13 10:39:00,59.7,56.5,29.93,WNW,293,5.0,7.0,89,0.00,,,0.00,meteohub,2013-04-13 17:39:00,
2013-04-13 10:44:00,59.5,56.7,29.93,NW,315,4.0,7.0,90,0.00,,,0.00,meteohub,2013-04-13 17:44:00,
2013-04-13 10:49:00,59.5,56.7,29.93,West,270,3.0,8.0,90,0.00,,,0.00,meteohub,2013-04-13 17:49:00,
2013-04-13 10:55:00,59.5,56.7,29.94,West,270,2.0,8.0,90,0.00,,,0.00,meteohub,2013-04-13 17:55:00,
2013-04-13 11:00:00,59.9,56.7,29.94,WNW,293,4.0,8.0,89,0.00,,,0.00,meteohub,2013-04-13 18:00:00,
2013-04-13 11:05:00,59.7,56.8,29.94,NW,315,5.0,6.0,90,0.00,,,0.00,meteohub,2013-04-13 18:05:00,
2013-04-13 11:10:00,59.7,56.8,29.94,NW,315,3.0,7.0,90,0.00,,,0.00,meteohub,2013-04-13 18:10:00,
2013-04-13 11:15:00,59.7,56.8,29.94,NW,315,6.0,7.0,90,0.00,,,0.00,meteohub,2013-04-13 18:15:00,
2013-04-13 11:20:00,59.9,56.7,29.94,NW,315,2.0,7.0,89,0.00,,,0.00,meteohub,2013-04-13 18:20:00,
2013-04-13 11:25:00,59.9,56.7,29.94,SSW,203,3.0,6.0,89,0.00,,,0.00,meteohub,2013-04-13 18:25:00,
2013-04-13 11:27:00,59.9,56.7,29.94,SSW,203,2.0,6.0,89,0.00,,,0.00,meteohub,2013-04-13 18:27:00,
2013-04-13 11:32:00,60.1,56.1,29.94,West,270,4.0,6.0,87,0.00,,,0.00,meteohub,2013-04-13 18:32:00,
2013-04-13 11:38:00,60.4,56.5,29.94,West,270,4.0,5.0,87,0.00,,,0.00,meteohub,2013-04-13 18:38:00,
2013-04-13 11:42:00,60.8,56.3,29.93,West,270,5.0,5.0,85,0.00,,,0.00,meteohub,2013-04-13 18:42:00,
2013-04-13 11:48:00,61.0,56.1,29.93,West,270,4.0,7.0,84,0.00,,,0.00,meteohub,2013-04-13 18:48:00,
2013-04-13 11:52:00,61.5,56.3,29.93,West,270,4.0,7.0,83,0.00,,,0.00,meteohub,2013-04-13 18:52:00,
2013-04-13 11:57:00,62.1,56.1,29.93,West,270,5.0,7.0,81,0.00,,,0.00,meteohub,2013-04-13 18:57:00,
2013-04-13 12:03:00,61.9,56.7,29.93,NW,315,6.0,7.0,83,0.00,,,0.00,meteohub,2013-04-13 19:03:00,
2013-04-13 12:08:00,61.3,56.5,29.93,NW,315,8.0,11.0,84,0.00,,,0.00,meteohub,2013-04-13 19:08:00,
2013-04-13 12:13:00,61.2,57.0,29.93,NW,315,5.0,11.0,86,0.00,,,0.00,meteohub,2013-04-13 19:13:00,
2013-04-13 12:18:00,61.2,56.7,29.93,WNW,293,7.0,11.0,85,0.00,,,0.00,meteohub,2013-04-13 19:18:00,
2013-04-13 12:23:00,61.2,57.0,29.93,NW,315,4.0,9.0,86,0.00,,,0.00,meteohub,2013-04-13 19:23:00,
2013-04-13 12:28:00,61.2,56.7,29.93,West,270,7.0,8.0,85,0.00,,,0.00,meteohub,2013-04-13 19:28:00,
2013-04-13 12:33:00,61.0,56.8,29.93,NW,315,7.0,8.0,86,0.00,,,0.00,meteohub,2013-04-13 19:33:00,
2013-04-13 12:38:00,60.8,56.8,29.93,NW,315,8.0,8.0,87,0.00,,,0.00,meteohub,2013-04-13 19:38:00,
2013-04-13 12:43:00,60.6,56.7,29.94,NW,315,4.0,8.0,87,0.00,,,0.00,meteohub,2013-04-13 19:43:00,
2013-04-13 12:48:00,60.6,56.7,29.94,NW,315,7.0,8.0,87,0.00,,,0.00,meteohub,2013-04-13 19:48:00,
2013-04-13 12:53:00,60.8,56.8,29.93,NW,315,6.0,8.0,87,0.00,,,0.00,meteohub,2013-04-13 19:53:00,
2013-04-13 12:58:00,61.0,57.0,29.93,WNW,293,7.0,8.0,87,0.00,,,0.00,meteohub,2013-04-13 19:58:00,
2013-04-13 13:03:00,60.8,56.8,29.93,NW,315,8.0,8.0,87,0.00,,,0.00,meteohub,2013-04-13 20:03:00,
2013-04-13 13:08:00,60.8,56.7,29.93,West,270,7.0,8.0,86,0.00,,,0.00,meteohub,2013-04-13 20:08:00,
2013-04-13 13:13:00,60.8,56.8,29.92,West,270,4.0,8.0,87,0.00,,,0.00,meteohub,2013-04-13 20:13:00,
2013-04-13 13:18:00,61.0,57.0,29.92,NW,315,9.0,9.0,87,0.00,,,0.00,meteohub,2013-04-13 20:18:00,
2013-04-13 13:23:00,61.2,57.6,29.92,West,270,11.0,11.0,88,0.00,,,0.00,meteohub,2013-04-13 20:23:00,
2013-04-13 13:28:00,60.8,57.2,29.92,West,270,10.0,10.0,88,0.00,,,0.00,meteohub,2013-04-13 20:28:00,
2013-04-13 13:33:00,60.4,57.2,29.92,West,270,11.0,11.0,89,0.00,,,0.00,meteohub,2013-04-13 20:33:00,
2013-04-13 13:38:00,60.8,57.6,29.92,West,270,10.0,11.0,89,0.00,,,0.00,meteohub,2013-04-13 20:38:00,
2013-04-13 13:43:00,61.2,57.6,29.91,West,270,8.0,11.0,88,0.00,,,0.00,meteohub,2013-04-13 20:43:00,
2013-04-13 13:48:00,61.3,57.4,29.91,West,270,8.0,11.0,87,0.00,,,0.00,meteohub,2013-04-13 20:48:00,
2013-04-13 13:53:00,61.7,57.4,29.91,West,270,8.0,10.0,86,0.00,,,0.00,meteohub,2013-04-13 20:53:00,
2013-04-13 13:58:00,61.3,56.8,29.91,West,270,10.0,11.0,85,0.00,,,0.00,meteohub,2013-04-13 20:58:00,
2013-04-13 14:03:00,61.3,57.2,29.91,West,270,7.0,11.0,86,0.00,,,0.00,meteohub,2013-04-13 21:03:00,
2013-04-13 14:08:00,61.5,57.0,29.91,NW,315,9.0,11.0,85,0.00,,,0.00,meteohub,2013-04-13 21:08:00,
2013-04-13 14:13:00,61.5,56.7,29.91,West,270,9.0,11.0,84,0.00,,,0.00,meteohub,2013-04-13 21:13:00,
2013-04-13 14:19:00,61.3,56.8,29.91,NW,315,11.0,11.0,85,0.00,,,0.00,meteohub,2013-04-13 21:19:00,
2013-04-13 14:24:00,61.5,57.0,29.90,West,270,8.0,10.0,85,0.00,,,0.00,meteohub,2013-04-13 21:24:00,
2013-04-13 14:29:00,61.5,57.0,29.90,West,270,7.0,11.0,85,0.00,,,0.00,meteohub,2013-04-13 21:29:00,
2013-04-13 14:34:00,61.7,56.5,29.90,West,270,7.0,11.0,83,0.00,,,0.00,meteohub,2013-04-13 21:34:00,
2013-04-13 14:39:00,61.3,56.5,29.90,NW,315,8.0,11.0,84,0.00,,,0.00,meteohub,2013-04-13 21:39:00,
2013-04-13 14:44:00,61.3,56.8,29.90,West,270,7.0,12.0,85,0.00,,,0.00,meteohub,2013-04-13 21:44:00,
2013-04-13 14:49:00,61.5,56.7,29.90,SW,225,7.0,12.0,84,0.00,,,0.00,meteohub,2013-04-13 21:49:00,
2013-04-13 14:54:00,61.3,56.8,29.90,West,270,7.0,12.0,85,0.00,,,0.00,meteohub,2013-04-13 21:54:00,
2013-04-13 14:59:00,61.2,56.7,29.90,NW,315,4.0,9.0,85,0.00,,,0.00,meteohub,2013-04-13 21:59:00,
2013-04-13 15:04:00,61.3,56.8,29.90,NW,315,5.0,8.0,85,0.00,,,0.00,meteohub,2013-04-13 22:04:00,
2013-04-13 15:09:00,61.7,56.8,29.90,NW,315,3.0,8.0,84,0.00,,,0.00,meteohub,2013-04-13 22:09:00,
2013-04-13 15:14:00,61.9,57.0,29.90,West,270,6.0,9.0,84,0.00,,,0.00,meteohub,2013-04-13 22:14:00,
2013-04-13 15:19:00,61.5,56.3,29.90,NW,315,6.0,9.0,83,0.00,,,0.00,meteohub,2013-04-13 22:19:00,
2013-04-13 15:24:00,61.3,56.5,29.90,NW,315,5.0,9.0,84,0.00,,,0.00,meteohub,2013-04-13 22:24:00,
2013-04-13 15:29:00,61.2,56.3,29.90,NW,315,8.0,9.0,84,0.00,,,0.00,meteohub,2013-04-13 22:29:00,
2013-04-13 15:34:00,61.2,56.3,29.88,West,270,9.0,10.0,84,0.00,,,0.00,meteohub,2013-04-13 22:34:00,
2013-04-13 15:39:00,61.0,56.1,29.88,NW,315,8.0,10.0,84,0.00,,,0.00,meteohub,2013-04-13 22:39:00,
2013-04-13 15:44:00,61.2,56.7,29.88,West,270,10.0,10.0,85,0.00,,,0.00,meteohub,2013-04-13 22:44:00,
2013-04-13 15:49:00,61.0,56.1,29.89,West,270,7.0,10.0,84,0.00,,,0.00,meteohub,2013-04-13 22:49:00,
2013-04-13 15:54:00,60.8,55.9,29.89,NW,315,8.0,11.0,84,0.00,,,0.00,meteohub,2013-04-13 22:54:00,
2013-04-13 15:59:00,60.8,56.3,29.89,West,270,4.0,11.0,85,0.00,,,0.00,meteohub,2013-04-13 22:59:00,
2013-04-13 16:04:00,60.4,55.9,29.89,North,0,4.0,9.0,85,0.00,,,0.00,meteohub,2013-04-13 23:04:00,
2013-04-13 16:09:00,60.4,55.9,29.88,West,270,6.0,8.0,85,0.00,,,0.00,meteohub,2013-04-13 23:09:00,
2013-04-13 16:14:00,60.4,56.3,29.88,NW,315,6.0,8.0,86,0.00,,,0.00,meteohub,2013-04-13 23:14:00,
2013-04-13 16:19:00,60.4,55.9,29.88,NW,315,6.0,8.0,85,0.00,,,0.00,meteohub,2013-04-13 23:19:00,
2013-04-13 16:24:00,60.3,55.8,29.88,NW,315,5.0,8.0,85,0.00,,,0.00,meteohub,2013-04-13 23:24:00,
2013-04-13 16:29:00,60.3,55.8,29.88,West,270,6.0,8.0,85,0.00,,,0.00,meteohub,2013-04-13 23:29:00,
2013-04-13 16:34:00,60.4,55.9,29.88,WSW,248,5.0,8.0,85,0.00,,,0.00,meteohub,2013-04-13 23:34:00,
2013-04-13 16:39:00,60.3,55.8,29.87,NW,315,5.0,9.0,85,0.00,,,0.00,meteohub,2013-04-13 23:39:00,
2013-04-13 16:44:00,60.3,55.8,29.87,NW,315,4.0,9.0,85,0.00,,,0.00,meteohub,2013-04-13 23:44:00,
2013-04-13 16:49:00,60.4,55.6,29.87,West,270,6.0,9.0,84,0.00,,,0.00,meteohub,2013-04-13 23:49:00,
2013-04-13 16:54:00,60.4,55.9,29.87,SSW,203,5.0,9.0,85,0.00,,,0.00,meteohub,2013-04-13 23:54:00,
2013-04-13 16:59:00,60.3,55.4,29.87,NW,315,8.0,9.0,84,0.00,,,0.00,meteohub,2013-04-13 23:59:00,
2013-04-13 17:04:00,60.3,55.8,29.86,WNW,293,6.0,8.0,85,0.00,,,0.00,meteohub,2013-04-14 00:04:00,
2013-04-13 17:09:00,60.3,55.8,29.86,West,270,8.0,8.0,85,0.00,,,0.00,meteohub,2013-04-14 00:09:00,
2013-04-13 17:14:00,59.9,55.8,29.87,WNW,293,8.0,8.0,86,0.00,,,0.00,meteohub,2013-04-14 00:14:00,
2013-04-13 17:19:00,59.7,55.8,29.86,West,270,8.0,9.0,87,0.00,,,0.00,meteohub,2013-04-14 00:19:00,
2013-04-13 17:24:00,59.7,55.8,29.86,WNW,293,5.0,9.0,87,0.00,,,0.00,meteohub,2013-04-14 00:24:00,
2013-04-13 17:29:00,59.7,55.8,29.87,NW,315,3.0,9.0,87,0.00,,,0.00,meteohub,2013-04-14 00:29:00,
2013-04-13 17:34:00,59.7,55.8,29.87,NW,315,4.0,8.0,87,0.00,,,0.00,meteohub,2013-04-14 00:34:00,
2013-04-13 17:39:00,59.9,55.8,29.86,WNW,293,7.0,8.0,86,0.00,,,0.00,meteohub,2013-04-14 00:39:00,
2013-04-13 17:44:00,59.9,55.4,29.87,West,270,6.0,8.0,85,0.00,,,0.00,meteohub,2013-04-14 00:44:00,
2013-04-13 17:49:00,59.7,55.2,29.87,NW,315,5.0,8.0,85,0.00,,,0.00,meteohub,2013-04-14 00:49:00,
2013-04-13 17:54:00,59.5,55.4,29.87,NW,315,6.0,8.0,86,0.00,,,0.00,meteohub,2013-04-14 00:54:00,
2013-04-13 17:59:00,59.4,55.4,29.87,NW,315,8.0,9.0,87,0.00,,,0.00,meteohub,2013-04-14 00:59:00,
2013-04-13 18:04:00,59.4,55.4,29.87,NW,315,5.0,9.0,87,0.00,,,0.00,meteohub,2013-04-14 01:04:00,
2013-04-13 18:10:00,59.4,55.4,29.87,West,270,5.0,9.0,87,0.00,,,0.00,meteohub,2013-04-14 01:10:00,
2013-04-13 18:15:00,59.4,55.4,29.87,NW,315,5.0,8.0,87,0.00,,,0.00,meteohub,2013-04-14 01:15:00,
2013-04-13 18:20:00,59.2,55.4,29.87,West,270,6.0,8.0,87,0.00,,,0.00,meteohub,2013-04-14 01:20:00,
2013-04-13 18:25:00,59.0,55.4,29.87,West,270,4.0,8.0,88,0.00,,,0.00,meteohub,2013-04-14 01:25:00,
2013-04-13 18:30:00,59.0,55.2,29.87,West,270,4.0,8.0,87,0.00,,,0.00,meteohub,2013-04-14 01:30:00,
2013-04-13 18:35:00,59.0,55.2,29.87,West,270,6.0,8.0,87,0.00,,,0.00,meteohub,2013-04-14 01:35:00,
2013-04-13 18:40:00,59.0,55.4,29.87,West,270,4.0,8.0,88,0.00,,,0.00,meteohub,2013-04-14 01:40:00,
2013-04-13 18:45:00,59.0,55.2,29.86,West,270,8.0,8.0,87,0.00,,,0.00,meteohub,2013-04-14 01:45:00,
2013-04-13 18:50:00,59.0,55.2,29.87,West,270,7.0,8.0,87,0.00,,,0.00,meteohub,2013-04-14 01:50:00,
2013-04-13 18:55:00,58.8,55.0,29.87,West,270,5.0,8.0,87,0.00,,,0.00,meteohub,2013-04-14 01:55:00,
2013-04-13 19:00:00,58.8,55.0,29.87,West,270,5.0,10.0,87,0.00,,,0.00,meteohub,2013-04-14 02:00:00,
2013-04-13 19:05:00,58.8,54.7,29.86,West,270,4.0,10.0,86,0.00,,,0.00,meteohub,2013-04-14 02:05:00,
2013-04-13 19:10:00,58.8,54.7,29.87,WNW,293,6.0,9.0,86,0.00,,,0.00,meteohub,2013-04-14 02:10:00,
2013-04-13 19:15:00,58.8,54.3,29.88,SW,225,4.0,9.0,85,0.00,,,0.00,meteohub,2013-04-14 02:15:00,
2013-04-13 19:20:00,58.8,54.3,29.87,West,270,4.0,9.0,85,0.00,,,0.00,meteohub,2013-04-14 02:20:00,
2013-04-13 19:25:00,58.8,54.3,29.87,West,270,3.0,9.0,85,0.00,,,0.00,meteohub,2013-04-14 02:25:00,
2013-04-13 19:30:00,58.6,54.1,29.88,West,270,5.0,9.0,85,0.00,,,0.00,meteohub,2013-04-14 02:30:00,
2013-04-13 19:35:00,58.6,54.1,29.88,West,270,4.0,8.0,85,0.00,,,0.00,meteohub,2013-04-14 02:35:00,
2013-04-13 19:40:00,58.8,54.0,29.87,West,270,4.0,7.0,84,0.00,,,0.00,meteohub,2013-04-14 02:40:00,
2013-04-13 19:45:00,58.6,53.8,29.88,South,180,2.0,6.0,84,0.00,,,0.00,meteohub,2013-04-14 02:45:00,
2013-04-13 19:50:00,58.8,54.0,29.87,West,270,4.0,6.0,84,0.00,,,0.00,meteohub,2013-04-14 02:50:00,
2013-04-13 19:55:00,58.6,53.8,29.87,SSE,158,8.0,8.0,84,0.00,,,0.00,meteohub,2013-04-14 02:55:00,
2013-04-13 20:00:00,58.5,54.0,29.88,West,270,6.0,8.0,85,0.00,,,0.00,meteohub,2013-04-14 03:00:00,
2013-04-13 20:05:00,58.5,54.0,29.88,WNW,293,4.0,8.0,85,0.00,,,0.00,meteohub,2013-04-14 03:05:00,
2013-04-13 20:10:00,58.5,53.6,29.88,West,270,8.0,8.0,84,0.00,,,0.00,meteohub,2013-04-14 03:10:00,
2013-04-13 20:15:00,58.5,53.6,29.88,West,270,3.0,10.0,84,0.00,,,0.00,meteohub,2013-04-14 03:15:00,
2013-04-13 20:20:00,58.5,53.6,29.88,West,270,5.0,10.0,84,0.00,,,0.00,meteohub,2013-04-14 03:20:00,
2013-04-13 20:25:00,58.5,53.6,29.89,West,270,6.0,10.0,84,0.00,,,0.00,meteohub,2013-04-14 03:25:00,
2013-04-13 20:30:00,58.5,53.6,29.89,West,270,5.0,8.0,84,0.00,,,0.00,meteohub,2013-04-14 03:30:00,
2013-04-13 20:35:00,58.3,53.4,29.89,West,270,5.0,7.0,84,0.00,,,0.00,meteohub,2013-04-14 03:35:00,
2013-04-13 20:40:00,58.3,53.4,29.89,West,270,4.0,7.0,84,0.00,,,0.00,meteohub,2013-04-14 03:40:00,
2013-04-13 20:45:00,58.3,53.4,29.89,WNW,293,5.0,7.0,84,0.00,,,0.00,meteohub,2013-04-14 03:45:00,
2013-04-13 20:50:00,58.1,53.2,29.90,West,270,4.0,7.0,84,0.00,,,0.00,meteohub,2013-04-14 03:50:00,
2013-04-13 20:55:00,58.1,53.6,29.90,West,270,3.0,8.0,85,0.00,,,0.00,meteohub,2013-04-14 03:55:00,
2013-04-13 21:00:00,57.9,53.4,29.90,West,270,3.0,8.0,85,0.00,,,0.00,meteohub,2013-04-14 04:00:00,
2013-04-13 21:01:00,57.9,53.4,29.90,West,270,4.0,8.0,85,0.00,,,0.00,meteohub,2013-04-14 04:01:00,
2013-04-13 21:06:00,57.9,53.4,29.90,West,270,5.0,8.0,85,0.00,,,0.00,meteohub,2013-04-14 04:06:00,
2013-04-13 21:11:00,57.7,53.2,29.90,West,270,6.0,8.0,85,0.00,,,0.00,meteohub,2013-04-14 04:11:00,
2013-04-13 21:16:00,57.7,53.2,29.91,West,270,4.0,8.0,85,0.00,,,0.00,meteohub,2013-04-14 04:16:00,
2013-04-13 21:21:00,57.6,52.7,29.91,West,270,4.0,8.0,84,0.00,,,0.00,meteohub,2013-04-14 04:21:00,
2013-04-13 21:26:00,57.6,53.1,29.91,SW,225,4.0,6.0,85,0.00,,,0.00,meteohub,2013-04-14 04:26:00,
2013-04-13 21:31:00,57.4,52.5,29.91,South,180,5.0,5.0,84,0.00,,,0.00,meteohub,2013-04-14 04:31:00,
2013-04-13 21:37:00,57.4,52.5,29.91,NE,45,4.0,5.0,84,0.00,,,0.00,meteohub,2013-04-14 04:37:00,
2013-04-13 21:42:00,57.4,52.5,29.91,South,180,4.0,5.0,84,0.00,,,0.00,meteohub,2013-04-14 04:42:00,
2013-04-13 21:47:00,57.4,52.5,29.91,SW,225,2.0,5.0,84,0.00,,,0.00,meteohub,2013-04-14 04:47:00,
2013-04-13 21:52:00,57.4,52.5,29.92,West,270,4.0,4.0,84,0.00,,,0.00,meteohub,2013-04-14 04:52:00,
2013-04-13 21:57:00,57.4,52.5,29.91,NW,315,5.0,6.0,84,0.00,,,0.00,meteohub,2013-04-14 04:57:00,
2013-04-13 22:02:00,57.2,52.2,29.92,West,270,2.0,6.0,83,0.00,,,0.00,meteohub,2013-04-14 05:02:00,
2013-04-13 22:07:00,57.2,52.3,29.92,West,270,2.0,6.0,84,0.00,,,0.00,meteohub,2013-04-14 05:07:00,
2013-04-13 22:12:00,57.2,52.3,29.92,SW,225,2.0,6.0,84,0.00,,,0.00,meteohub,2013-04-14 05:12:00,
2013-04-13 22:17:00,57.2,52.3,29.92,West,270,3.0,4.0,84,0.00,,,0.00,meteohub,2013-04-14 05:17:00,
2013-04-13 22:22:00,57.2,52.3,29.92,West,270,3.0,5.0,84,0.00,,,0.00,meteohub,2013-04-14 05:22:00,
2013-04-13 22:27:00,57.2,52.3,29.92,South,180,2.0,5.0,84,0.00,,,0.00,meteohub,2013-04-14 05:27:00,
2013-04-13 22:32:00,57.2,52.2,29.91,WSW,248,4.0,5.0,83,0.00,,,0.00,meteohub,2013-04-14 05:32:00,
2013-04-13 22:37:00,57.2,52.2,29.91,South,180,2.0,4.0,83,0.00,,,0.00,meteohub,2013-04-14 05:37:00,
2013-04-13 22:42:00,57.2,52.2,29.91,South,180,1.0,4.0,83,0.00,,,0.00,meteohub,2013-04-14 05:42:00,
2013-04-13 22:47:00,57.2,52.2,29.91,South,180,3.0,4.0,83,0.00,,,0.00,meteohub,2013-04-14 05:47:00,
2013-04-13 22:52:00,57.2,52.2,29.91,South,180,5.0,5.0,83,0.00,,,0.00,meteohub,2013-04-14 05:52:00,
2013-04-13 22:57:00,57.2,52.2,29.91,South,180,3.0,5.0,83,0.00,,,0.00,meteohub,2013-04-14 05:57:00,
2013-04-13 23:02:00,57.2,52.2,29.91,South,180,4.0,5.0,83,0.00,,,0.00,meteohub,2013-04-14 06:02:00,
2013-04-13 23:07:00,57.2,51.8,29.91,South,180,3.0,5.0,82,0.00,,,0.00,meteohub,2013-04-14 06:07:00,
2013-04-13 23:12:00,57.0,51.6,29.91,SW,225,2.0,7.0,82,0.00,,,0.00,meteohub,2013-04-14 06:12:00,
2013-04-13 23:17:00,57.0,51.6,29.91,SW,225,3.0,7.0,82,0.00,,,0.00,meteohub,2013-04-14 06:17:00,
2013-04-13 23:22:00,57.0,51.6,29.91,South,180,3.0,7.0,82,0.00,,,0.00,meteohub,2013-04-14 06:22:00,
2013-04-13 23:27:00,57.0,52.0,29.91,SSE,158,2.0,4.0,83,0.00,,,0.00,meteohub,2013-04-14 06:27:00,
2013-04-13 23:32:00,57.0,51.6,29.91,SSE,158,2.0,4.0,82,0.00,,,0.00,meteohub,2013-04-14 06:32:00,
2013-04-13 23:37:00,56.8,51.8,29.91,SSE,158,1.0,4.0,83,0.00,,,0.00,meteohub,2013-04-14 06:37:00,
2013-04-13 23:42:00,57.0,52.0,29.91,SW,225,0.0,4.0,83,0.00,,,0.00,meteohub,2013-04-14 06:42:00,
2013-04-13 23:47:00,57.0,52.0,29.91,SW,225,3.0,3.0,83,0.00,,,0.00,meteohub,2013-04-14 06:47:00,
2013-04-13 23:52:00,57.0,52.0,29.90,West,270,4.0,4.0,83,0.00,,,0.00,meteohub,2013-04-14 06:52:00,
2013-04-13 23:57:00,57.0,51.6,29.90,West,270,2.0,4.0,82,0.00,,,0.00,meteohub,2013-04-14 06:57:00,